When you browse on this site, cookies collect data to enhance your experience and personalize the content and advertising you see.
Visit our Privacy Policy to learn more. By continuing to use the site, you agree to this use of cookies and data.
  • In Österreich
  • Länderverzeichnis
  • Für 7 Tage
  • Wassertemperatur
  • Wetterkarte
  • News
  • Widgets
  • user-avatar
    Anmelden

    Stündliche Wetter Brčko

    Heute, 18 Oktober, Freitag

    Zeit Temperatur Niederschläge Wind Luftdruck Luftfeuchtigkeit
    00:00 +15°C° 0 mm 0 m/S 755 mmHg 78%
    01:00 +14°C° 0 mm 0 m/S 755 mmHg 82%
    02:00 +15°C° 0 mm 1 m/S 754 mmHg 84%
    03:00 +15°C° 0 mm 1 m/S 754 mmHg 85%
    04:00 +15°C° 0 mm 1 m/S 754 mmHg 86%
    05:00 +15°C° 0 mm 1 m/S 754 mmHg 86%
    06:00 +15°C° 0 mm 1 m/S 754 mmHg 85%
    07:00 +15°C° 0 mm 1 m/S 755 mmHg 85%
    08:00 +18°C° 0 mm 1 m/S 755 mmHg 75%
    09:00 +21°C° 0 mm 1 m/S 755 mmHg 66%
    10:00 +23°C° 0 mm 1 m/S 755 mmHg 56%
    11:00 +24°C° 0 mm 1 m/S 754 mmHg 52%
    12:00 +25°C° 0 mm 2 m/S 754 mmHg 48%
    13:00 +25°C° 0 mm 2 m/S 753 mmHg 43%
    14:00 +25°C° 0 mm 1 m/S 753 mmHg 45%
    15:00 +24°C° 0 mm 1 m/S 753 mmHg 47%
    16:00 +24°C° 0 mm 1 m/S 753 mmHg 49%
    17:00 +22°C° 0 mm 1 m/S 753 mmHg 53%
    18:00 +20°C° 0 mm 1 m/S 753 mmHg 56%
    19:00 +16°C° 0 mm 0 m/S 753 mmHg 60%
    20:00 +16°C° 0 mm 0 m/S 754 mmHg 62%
    21:00 +18°C° 0 mm 1 m/S 754 mmHg 64%
    22:00 +16°C° 0 mm 1 m/S 754 mmHg 66%
    23:00 +16°C° 0 mm 1 m/S 754 mmHg 69%

    Morgen, 19 Oktober, Samstag

    Zeit Temperatur Niederschläge Wind Luftdruck Luftfeuchtigkeit
    00:00 +16°C° 0 mm 1 m/S 754 mmHg 71%
    01:00 +15°C° 0 mm 1 m/S 754 mmHg 74%
    02:00 +15°C° 0 mm 1 m/S 754 mmHg 76%
    03:00 +14°C° 0 mm 1 m/S 754 mmHg 77%
    04:00 +14°C° 0 mm 1 m/S 754 mmHg 79%
    05:00 +14°C° 0 mm 1 m/S 754 mmHg 78%
    06:00 +15°C° 0 mm 1 m/S 754 mmHg 77%
    07:00 +15°C° 0 mm 1 m/S 754 mmHg 76%
    08:00 +18°C° 0 mm 1 m/S 754 mmHg 67%
    09:00 +21°C° 0 mm 1 m/S 754 mmHg 57%
    10:00 +24°C° 0 mm 1 m/S 754 mmHg 48%
    11:00 +25°C° 0 mm 1 m/S 754 mmHg 43%
    12:00 +24°C° 0 mm 0 m/S 754 mmHg 38%
    13:00 +25°C° 0 mm 0 m/S 753 mmHg 33%
    14:00 +26°C° 0 mm 1 m/S 753 mmHg 35%
    15:00 +26°C° 0 mm 1 m/S 753 mmHg 38%
    16:00 +25°C° 0 mm 1 m/S 753 mmHg 40%
    17:00 +23°C° 0 mm 1 m/S 753 mmHg 44%
    18:00 +21°C° 0 mm 1 m/S 753 mmHg 49%
    19:00 +17°C° 0 mm 0 m/S 754 mmHg 53%
    20:00 +19°C° 0 mm 1 m/S 754 mmHg 54%
    21:00 +19°C° 0 mm 1 m/S 754 mmHg 55%
    22:00 +18°C° 0 mm 1 m/S 755 mmHg 56%
    23:00 +18°C° 0 mm 1 m/S 755 mmHg 58%

    übermorgen, 20 Oktober, Sonntag

    Zeit Temperatur Niederschläge Wind Luftdruck Luftfeuchtigkeit
    00:00 +16°C° 0 mm 1 m/S 755 mmHg 60%
    01:00 +16°C° 0 mm 1 m/S 755 mmHg 61%
    02:00 +15°C° 0 mm 1 m/S 755 mmHg 64%
    03:00 +15°C° 0 mm 1 m/S 755 mmHg 66%
    04:00 +15°C° 0 mm 1 m/S 755 mmHg 68%
    05:00 +15°C° 0 mm 1 m/S 755 mmHg 68%
    06:00 +15°C° 0 mm 1 m/S 755 mmHg 68%
    07:00 +15°C° 0 mm 1 m/S 755 mmHg 68%
    08:00 +19°C° 0 mm 1 m/S 755 mmHg 59%
    09:00 +22°C° 0 mm 1 m/S 755 mmHg 50%
    10:00 +24°C° 0 mm 1 m/S 755 mmHg 41%
    11:00 +26°C° 0 mm 1 m/S 755 mmHg 37%
    12:00 +27°C° 0 mm 1 m/S 755 mmHg 33%
    13:00 +28°C° 0 mm 1 m/S 755 mmHg 29%
    14:00 +28°C° 0 mm 1 m/S 754 mmHg 32%
    15:00 +27°C° 0 mm 1 m/S 754 mmHg 35%
    16:00 +26°C° 0 mm 1 m/S 754 mmHg 37%
    17:00 +24°C° 0 mm 1 m/S 755 mmHg 41%
    18:00 +22°C° 0 mm 1 m/S 755 mmHg 45%
    19:00 +20°C° 0 mm 1 m/S 755 mmHg 49%
    20:00 +20°C° 0 mm 1 m/S 755 mmHg 51%
    21:00 +19°C° 0 mm 1 m/S 756 mmHg 52%
    22:00 +18°C° 0 mm 2 m/S 756 mmHg 53%
    23:00 +17°C° 0 mm 2 m/S 756 mmHg 54%

    21 Oktober, Montag

    Zeit Temperatur Niederschläge Wind Luftdruck Luftfeuchtigkeit
    00:00 +17°C° 0 mm 2 m/S 756 mmHg 56%
    01:00 +16°C° 0 mm 2 m/S 756 mmHg 57%
    02:00 +16°C° 0 mm 2 m/S 756 mmHg 58%
    03:00 +16°C° 0 mm 2 m/S 756 mmHg 58%
    04:00 +15°C° 0 mm 1 m/S 756 mmHg 58%
    05:00 +16°C° 0 mm 1 m/S 756 mmHg 57%
    06:00 +16°C° 0 mm 1 m/S 756 mmHg 56%
    07:00 +16°C° 0 mm 1 m/S 756 mmHg 55%
    08:00 +20°C° 0 mm 1 m/S 756 mmHg 47%
    09:00 +23°C° 0 mm 1 m/S 756 mmHg 39%
    10:00 +26°C° 0 mm 1 m/S 756 mmHg 31%
    11:00 +28°C° 0 mm 1 m/S 756 mmHg 28%
    12:00 +29°C° 0 mm 1 m/S 756 mmHg 26%
    13:00 +31°C° 0 mm 1 m/S 756 mmHg 23%
    14:00 +30°C° 0 mm 1 m/S 756 mmHg 26%
    15:00 +28°C° 0 mm 1 m/S 756 mmHg 29%
    16:00 +27°C° 0 mm 1 m/S 756 mmHg 32%
    17:00 +25°C° 0 mm 1 m/S 756 mmHg 35%
    18:00 +21°C° 0 mm 0 m/S 756 mmHg 39%
    19:00 +19°C° 0 mm 0 m/S 757 mmHg 42%
    20:00 +19°C° 0 mm 0 m/S 757 mmHg 43%
    21:00 +19°C° 0 mm 0 m/S 757 mmHg 45%
    22:00 +18°C° 0 mm 0 m/S 757 mmHg 46%
    23:00 +18°C° 0 mm 0 m/S 758 mmHg 48%

    22 Oktober, Dienstag

    Zeit Temperatur Niederschläge Wind Luftdruck Luftfeuchtigkeit
    00:00 +19°C° 0 mm 1 m/S 758 mmHg 50%
    01:00 +19°C° 0 mm 1 m/S 758 mmHg 52%
    02:00 +18°C° 0 mm 1 m/S 758 mmHg 56%
    03:00 +18°C° 0 mm 1 m/S 758 mmHg 59%
    04:00 +16°C° 0 mm 1 m/S 758 mmHg 62%
    05:00 +16°C° 0 mm 1 m/S 758 mmHg 64%
    06:00 +16°C° 0 mm 1 m/S 758 mmHg 67%
    07:00 +16°C° 0 mm 1 m/S 759 mmHg 70%
    08:00 +19°C° 0 mm 1 m/S 759 mmHg 64%
    09:00 +22°C° 0 mm 1 m/S 759 mmHg 59%
    10:00 +24°C° 0 mm 1 m/S 759 mmHg 53%
    11:00 +25°C° 0 mm 2 m/S 759 mmHg 50%
    12:00 +26°C° 0 mm 2 m/S 758 mmHg 47%
    13:00 +27°C° 0 mm 2 m/S 758 mmHg 44%
    14:00 +26°C° 0 mm 2 m/S 758 mmHg 46%
    15:00 +26°C° 0 mm 2 m/S 758 mmHg 49%
    16:00 +25°C° 0 mm 2 m/S 758 mmHg 51%
    17:00 +23°C° 0 mm 1 m/S 758 mmHg 56%
    18:00 +22°C° 0 mm 1 m/S 758 mmHg 61%
    19:00 +20°C° 0 mm 1 m/S 758 mmHg 66%
    20:00 +20°C° 0 mm 1 m/S 758 mmHg 68%
    21:00 +19°C° 0 mm 1 m/S 758 mmHg 70%
    22:00 +17°C° 0 mm 0 m/S 759 mmHg 72%
    23:00 +16°C° 0 mm 0 m/S 758 mmHg 74%

    23 Oktober, Mittwoch

    Zeit Temperatur Niederschläge Wind Luftdruck Luftfeuchtigkeit
    00:00 +16°C° 0 mm 0 m/S 758 mmHg 75%
    01:00 +16°C° 0 mm 0 m/S 758 mmHg 77%
    02:00 +15°C° 0 mm 0 m/S 758 mmHg 79%
    03:00 +15°C° 0 mm 0 m/S 758 mmHg 80%
    04:00 +15°C° 0 mm 0 m/S 758 mmHg 82%
    05:00 +15°C° 0 mm 0 m/S 758 mmHg 82%
    06:00 +15°C° 0 mm 0 m/S 758 mmHg 81%
    07:00 +15°C° 0 mm 0 m/S 758 mmHg 81%
    08:00 +19°C° 0 mm 1 m/S 758 mmHg 72%
    09:00 +21°C° 0 mm 1 m/S 757 mmHg 64%
    10:00 +23°C° 0 mm 2 m/S 757 mmHg 55%
    11:00 +24°C° 0 mm 2 m/S 757 mmHg 51%
    12:00 +26°C° 0 mm 2 m/S 756 mmHg 46%
    13:00 +27°C° 0 mm 2 m/S 756 mmHg 42%
    14:00 +26°C° 0 mm 2 m/S 756 mmHg 44%
    15:00 +26°C° 0 mm 2 m/S 755 mmHg 46%
    16:00 +25°C° 0 mm 1 m/S 755 mmHg 49%
    17:00 +23°C° 0 mm 1 m/S 755 mmHg 54%
    18:00 +21°C° 0 mm 1 m/S 755 mmHg 59%
    19:00 +20°C° 0 mm 1 m/S 755 mmHg 64%
    20:00 +19°C° 0 mm 1 m/S 756 mmHg 66%
    21:00 +18°C° 0 mm 1 m/S 756 mmHg 68%
    22:00 +18°C° 0 mm 1 m/S 756 mmHg 69%
    23:00 +16°C° 0 mm 1 m/S 756 mmHg 71%
    Mehr zeigen